When you browse on this site, cookies collect data to enhance your experience and personalize the content and advertising you see.
Visit our Privacy Policy to learn more. By continuing to use the site, you agree to this use of cookies and data.
  • en Suisse
  • Liste des pays
  • À 7 jours
  • Température de l'eau
  • Carte satellitaire
  • Carte météo
  • Widgets météo
  • user-avatar
    Se connecter

    Météo par heure à Andorre-la-Vieille

    Ce jour, 23 Janvier, Mercredi

    Heure Température Précipitation Vent Pression Humidité
    00:00 -7°C° 0 mm 2 m/s 610 mmHg 84%
    01:00 -6°C° 0.5 mm 1 m/s 610 mmHg 85%
    02:00 -4°C° 0.5 mm 1 m/s 610 mmHg 85%
    03:00 -3°C° 0.5 mm 1 m/s 609 mmHg 86%
    04:00 -3°C° 1.1 mm 1 m/s 609 mmHg 88%
    05:00 -3°C° 1.1 mm 1 m/s 609 mmHg 90%
    06:00 -3°C° 0 mm 1 m/s 608 mmHg 92%
    07:00 -3°C° 2.2 mm 1 m/s 607 mmHg 93%
    08:00 -3°C° 2.2 mm 1 m/s 607 mmHg 94%
    09:00 -2°C° 2.2 mm 1 m/s 607 mmHg 94%
    10:00 -4°C° 1.9 mm 2 m/s 607 mmHg 93%
    11:00 -4°C° 1.9 mm 3 m/s 607 mmHg 91%
    12:00 -4°C° 1.9 mm 4 m/s 607 mmHg 89%
    13:00 -5°C° 1.4 mm 4 m/s 607 mmHg 90%
    14:00 -6°C° 1.4 mm 5 m/s 607 mmHg 90%
    15:00 -7°C° 1.4 mm 5 m/s 607 mmHg 91%
    16:00 -8°C° 1.4 mm 5 m/s 607 mmHg 92%
    17:00 -10°C° 1.4 mm 6 m/s 607 mmHg 93%
    18:00 -10°C° 1.4 mm 6 m/s 607 mmHg 94%
    19:00 -11°C° 1 mm 6 m/s 607 mmHg 93%
    20:00 -12°C° 1 mm 7 m/s 608 mmHg 93%
    21:00 -12°C° 1 mm 7 m/s 608 mmHg 93%
    22:00 -13°C° 0.5 mm 7 m/s 608 mmHg 92%
    23:00 -13°C° 0.5 mm 7 m/s 608 mmHg 91%

    Demain, 24 Janvier, Jeudi

    Heure Température Précipitation Vent Pression Humidité
    00:00 -14°C° 0.5 mm 7 m/s 608 mmHg 90%
    01:00 -14°C° 0.5 mm 7 m/s 609 mmHg 90%
    02:00 -14°C° 0.5 mm 7 m/s 609 mmHg 90%
    03:00 -14°C° 0.5 mm 7 m/s 609 mmHg 90%
    04:00 -14°C° 0.5 mm 6 m/s 609 mmHg 90%
    05:00 -13°C° 0.5 mm 5 m/s 610 mmHg 90%
    06:00 -13°C° 0.5 mm 5 m/s 610 mmHg 90%
    07:00 -13°C° 0.2 mm 5 m/s 610 mmHg 89%
    08:00 -12°C° 0.2 mm 5 m/s 611 mmHg 87%
    09:00 -12°C° 0.2 mm 5 m/s 612 mmHg 86%
    10:00 -12°C° 0.1 mm 5 m/s 612 mmHg 85%
    11:00 -11°C° 0.1 mm 5 m/s 613 mmHg 83%
    12:00 -11°C° 0.1 mm 5 m/s 613 mmHg 82%
    13:00 -11°C° 0.1 mm 5 m/s 613 mmHg 82%
    14:00 -11°C° 0.1 mm 5 m/s 613 mmHg 82%
    15:00 -11°C° 0.1 mm 5 m/s 613 mmHg 82%
    16:00 -12°C° 0.1 mm 5 m/s 613 mmHg 84%
    17:00 -12°C° 0.1 mm 4 m/s 613 mmHg 85%
    18:00 -14°C° 0.1 mm 4 m/s 614 mmHg 87%
    19:00 -14°C° 0 mm 4 m/s 614 mmHg 85%
    20:00 -15°C° 0 mm 4 m/s 614 mmHg 83%
    21:00 -15°C° 0 mm 4 m/s 614 mmHg 81%
    22:00 -15°C° 0 mm 4 m/s 614 mmHg 78%
    23:00 -15°C° 0 mm 4 m/s 615 mmHg 75%

    Après-demain, 25 Janvier, Vendredi

    Heure Température Précipitation Vent Pression Humidité
    00:00 -15°C° 0 mm 4 m/s 615 mmHg 73%
    01:00 -15°C° 0 mm 4 m/s 615 mmHg 72%
    02:00 -14°C° 0 mm 4 m/s 615 mmHg 71%
    03:00 -12°C° 0 mm 4 m/s 616 mmHg 70%
    04:00 -11°C° 0.1 mm 4 m/s 616 mmHg 76%
    05:00 -10°C° 0.1 mm 4 m/s 616 mmHg 81%
    06:00 -8°C° 0.1 mm 4 m/s 617 mmHg 86%
    07:00 -7°C° 0.4 mm 4 m/s 617 mmHg 87%
    08:00 -4°C° 0.4 mm 4 m/s 618 mmHg 88%
    09:00 -2°C° 0.4 mm 4 m/s 619 mmHg 89%
    10:00 -2°C° 1 mm 5 m/s 619 mmHg 89%
    11:00 -1°C° 1 mm 5 m/s 619 mmHg 89%
    12:00 -1°C° 1 mm 5 m/s 619 mmHg 89%
    13:00 -2°C° 0.9 mm 6 m/s 619 mmHg 89%
    14:00 -2°C° 0.9 mm 6 m/s 618 mmHg 89%
    15:00 -2°C° 0.9 mm 6 m/s 618 mmHg 88%
    16:00 -3°C° 0.5 mm 6 m/s 619 mmHg 88%
    17:00 -3°C° 0.5 mm 7 m/s 619 mmHg 88%
    18:00 -3°C° 0.5 mm 7 m/s 619 mmHg 88%
    19:00 -4°C° 0.1 mm 7 m/s 620 mmHg 88%
    20:00 -4°C° 0.1 mm 7 m/s 620 mmHg 89%
    21:00 -4°C° 0.1 mm 6 m/s 621 mmHg 89%
    22:00 -4°C° 0 mm 6 m/s 621 mmHg 89%
    23:00 -4°C° 0 mm 6 m/s 621 mmHg 89%

    26 Janvier, Samedi

    Heure Température Précipitation Vent Pression Humidité
    00:00 -5°C° 0 mm 5 m/s 621 mmHg 90%
    01:00 -5°C° 0 mm 5 m/s 621 mmHg 90%
    02:00 -5°C° 0 mm 5 m/s 621 mmHg 90%
    03:00 -5°C° 0 mm 4 m/s 620 mmHg 91%
    04:00 -5°C° 0 mm 4 m/s 621 mmHg 91%
    05:00 -5°C° 0 mm 3 m/s 621 mmHg 91%
    06:00 -5°C° 0 mm 3 m/s 621 mmHg 91%
    07:00 -5°C° 0 mm 3 m/s 621 mmHg 91%
    08:00 -4°C° 0 mm 3 m/s 621 mmHg 90%
    09:00 -2°C° 0 mm 2 m/s 622 mmHg 89%
    10:00 -1°C° 0 mm 2 m/s 622 mmHg 89%
    11:00 +1°C° 0 mm 2 m/s 622 mmHg 89%
    12:00 +3°C° 0 mm 2 m/s 622 mmHg 89%
    13:00 +3°C° 0 mm 1 m/s 622 mmHg 90%
    14:00 +3°C° 0 mm 1 m/s 621 mmHg 90%
    15:00 +3°C° 0 mm 1 m/s 621 mmHg 91%
    16:00 +1°C° 0 mm 1 m/s 620 mmHg 90%
    17:00 -3°C° 0 mm 2 m/s 619 mmHg 90%
    18:00 -5°C° 0 mm 2 m/s 618 mmHg 90%
    19:00 -6°C° 0 mm 2 m/s 617 mmHg 88%
    20:00 -6°C° 0 mm 2 m/s 617 mmHg 86%
    21:00 -7°C° 0 mm 2 m/s 617 mmHg 84%
    22:00 -7°C° 0 mm 2 m/s 616 mmHg 84%
    23:00 -7°C° 0 mm 2 m/s 616 mmHg 85%

    27 Janvier, Dimanche

    Heure Température Précipitation Vent Pression Humidité
    00:00 -7°C° 0 mm 2 m/s 616 mmHg 85%
    01:00 -6°C° 0 mm 2 m/s 616 mmHg 87%
    02:00 -5°C° 0 mm 3 m/s 616 mmHg 89%
    03:00 -4°C° 0 mm 3 m/s 616 mmHg 91%
    04:00 -5°C° 0.1 mm 3 m/s 616 mmHg 90%
    05:00 -5°C° 0.1 mm 3 m/s 616 mmHg 90%
    06:00 -6°C° 0.1 mm 3 m/s 616 mmHg 90%
    07:00 -6°C° 0.1 mm 3 m/s 616 mmHg 88%
    08:00 -6°C° 0.1 mm 3 m/s 616 mmHg 87%
    09:00 -6°C° 0.1 mm 3 m/s 616 mmHg 85%
    10:00 -5°C° 0.3 mm 4 m/s 616 mmHg 84%
    11:00 -5°C° 0.3 mm 4 m/s 616 mmHg 82%
    12:00 -6°C° 0.3 mm 5 m/s 616 mmHg 81%
    13:00 -7°C° 0.3 mm 5 m/s 615 mmHg 81%
    14:00 -8°C° 0.3 mm 5 m/s 615 mmHg 80%
    15:00 -9°C° 0.3 mm 6 m/s 614 mmHg 79%
    16:00 -10°C° 0.4 mm 5 m/s 614 mmHg 83%
    17:00 -10°C° 0.4 mm 4 m/s 614 mmHg 86%
    18:00 -10°C° 0.4 mm 4 m/s 614 mmHg 89%
    19:00 -10°C° 0.6 mm 4 m/s 614 mmHg 90%
    20:00 -11°C° 0.6 mm 4 m/s 614 mmHg 91%
    21:00 -11°C° 0.6 mm 4 m/s 614 mmHg 91%
    22:00 -11°C° 0.6 mm 4 m/s 614 mmHg 92%
    23:00 -11°C° 0.6 mm 4 m/s 614 mmHg 93%

    28 Janvier, Lundi

    Heure Température Précipitation Vent Pression Humidité
    00:00 -11°C° 0.6 mm 4 m/s 614 mmHg 94%
    01:00 -11°C° 0.7 mm 4 m/s 613 mmHg 93%
    02:00 -11°C° 0.7 mm 4 m/s 613 mmHg 93%
    03:00 -11°C° 0.7 mm 4 m/s 613 mmHg 93%
    04:00 -11°C° 0.5 mm 4 m/s 613 mmHg 92%
    05:00 -11°C° 0.5 mm 4 m/s 613 mmHg 91%
    06:00 -11°C° 0.5 mm 4 m/s 613 mmHg 90%
    07:00 -11°C° 0.5 mm 4 m/s 613 mmHg 89%
    08:00 -11°C° 0.5 mm 4 m/s 613 mmHg 87%
    09:00 -10°C° 0.5 mm 4 m/s 613 mmHg 85%
    10:00 -11°C° 0.3 mm 5 m/s 613 mmHg 83%
    11:00 -11°C° 0.3 mm 5 m/s 613 mmHg 81%
    12:00 -11°C° 0.3 mm 6 m/s 613 mmHg 79%
    13:00 -11°C° 0.2 mm 6 m/s 613 mmHg 79%
    14:00 -11°C° 0.2 mm 6 m/s 613 mmHg 80%
    15:00 -11°C° 0.2 mm 5 m/s 613 mmHg 80%
    16:00 -12°C° 0.2 mm 5 m/s 613 mmHg 83%
    17:00 -12°C° 0.2 mm 5 m/s 614 mmHg 85%
    18:00 -13°C° 0.2 mm 5 m/s 614 mmHg 88%
    19:00 -13°C° 0.3 mm 5 m/s 614 mmHg 88%
    20:00 -13°C° 0.3 mm 5 m/s 615 mmHg 88%
    21:00 -13°C° 0.3 mm 5 m/s 615 mmHg 89%
    22:00 -13°C° 0.4 mm 5 m/s 615 mmHg 88%
    23:00 -14°C° 0.4 mm 6 m/s 615 mmHg 88%
    Voir plus